Regional Weather Roundup
Issued by NWS

Home | Current Version | Previous Version | Text Only | Print | Product List | Glossary On
Versions: 1 2 3 4 5 6 7 8 9 10 11 12 13 14 15 16 17 18 19 20 21 22 23 24 25 26 27 28 29 30 31 32 33 34 35 36 37 38 39 40 41 42 43 44 45 46 47 48 49 50
000
ASUS44 KFWD 060303
RWRTX
NORTH TEXAS HOURLY WEATHER ROUNDUP
NATIONAL WEATHER SERVICE FORT WORTH TX
900 PM CST THU MAR 05 2015

NOTE: "FAIR" INDICATES FEW OR NO CLOUDS BELOW 12,000 FEET WITH NO
SIGNIFICANT WEATHER AND/OR OBSTRUCTIONS TO VISIBILITY.

TXZ118-119-060400-
DALLAS/FORT WORTH METROPLEX

CITY           SKY/WX    TMP DP  RH WIND       PRES   REMARKS
DFW AIRPORT    CLEAR     33  21  61 S5        30.59R WCI  29
DALLAS LOVE    CLEAR     35  21  56 SE6       30.60R WCI  30
FTW MEACHAM    CLEAR     35  23  61 SE3       30.58R
DAL-EXECUTIVE  CLEAR     29  23  78 S3        30.59R
FTW-ALLIANCE   CLEAR     30  24  78 S3        30.58R
FTW-SPINKS     CLEAR     30  25  83 CALM      30.61R
ARLINGTON      CLEAR     30  23  75 CALM      30.60R
GRAND PRAIRIE  CLEAR     35  26  71 CALM      30.61S
ADDISON        CLEAR     34  21  60 CALM      30.60
MESQUITE       CLEAR     32  26  78 CALM      30.61R
LANCASTER      CLEAR     29  24  81 CALM      30.61S
$$

TXZ091>094-102>105-117-120-121-131>134-060400-
NORTH CENTRAL TEXAS

CITY           SKY/WX    TMP DP  RH WIND       PRES   REMARKS
SHRMAN/DENISON CLEAR     32  26  78 CALM      30.58S
GAINESVILLE    CLEAR     33  21  62 W3        30.59S
BOWIE          CLEAR     29  26  88 CALM      30.56S
BRIDGEPORT     CLEAR     32  25  76 CALM      30.60R
DECATUR        CLEAR     35  19  53 S3        30.57R
DENTON         CLEAR     33  22  63 SE5       30.59R WCI  29
MCKINNEY       CLEAR     30  23  75 CALM      30.59R
GREENVILLE     CLEAR     32  27  80 CALM      30.60R
TERRELL        CLEAR     32  26  78 CALM      30.60S
WAXAHACHIE     CLEAR     30  25  83 CALM      30.61R
CLEBURNE       CLEAR     32  21  64 MISG      30.59F
GRANBURY       CLEAR     31  22  69 CALM      30.60S
$$

TXZ083>090-098>101-113>116-127>130-139>142-154-155-060400-
WESTERN NORTH TEXAS

CITY           SKY/WX    TMP DP  RH WIND       PRES   REMARKS
WICHITA FALLS  CLEAR     29  21  72 S8        30.55R WCI  21
WF-KICKAPOO    CLEAR     33  26  74 S6        30.57S WCI  27
VERNON         PTCLDY    33  20  58 S7        30.53S WCI  27
ABILENE        FAIR      31  22  69 SE5       30.53R WCI  26
ABILENE-DYESS  CLEAR     30  25  81 SE2       30.51R
BRECKENRIDGE   CLEAR     33  24  70 CALM      30.56R
GRAHAM         CLEAR     31  24  75 E3        30.55S
MINERAL WELLS  CLEAR     32  22  66 S7        30.56R WCI  26
STEPHENVILLE   CLEAR     32  19  60 CALM      30.58S
COMANCHE       CLEAR     32  21  64 SE3       30.56R
BROWNWOOD      PTCLDY    30  25  80 CALM      30.57R
COLEMAN        CLEAR     33  27  79 CALM      30.55R
BRADY          CLEAR     32  19  59 E5        30.53R WCI  27
$$

TXZ143>147-156>162-174-175-060400-
CENTRAL TEXAS

CITY           SKY/WX    TMP DP  RH WIND       PRES   REMARKS
WACO           CLEAR     29  22  75 NE6       30.61R WCI  23
WACO-MCGREGOR  CLEAR     30  21  69 N5        30.62R WCI  25
HILLSBORO      CLEAR     29  20  69 CALM      30.60R
CORSICANA      CLEAR     32  24  72 N6        30.60R WCI  26
MEXIA          CLEAR     31  24  76 MISG      30.58R
HEARNE         CLEAR     32  25  75 NW7       30.60R WCI  25
CAMERON        CLEAR     32  26  78 N7        30.60R WCI  26
TEMPLE         CLEAR     30  19  64 CALM      30.59R
KILLEEN        CLEAR     31  20  62 N3        30.57R
KILLEEN-SKYLRK CLEAR     30  16  55 N5        30.57R WCI  25
FORT HOOD      CLEAR     32  20  61 N6        30.57R WCI  27
GATESVILLE     CLEAR     32  23  69 CALM      30.62R
HAMILTON       CLEAR     32  19  58 E5        30.57R WCI  27
LAMPASAS       CLEAR     30  22  70 N3        30.57R
$$

TXZ095>097-106>112-122>126-135>138-148>153-164>167-060400-
EAST TEXAS

CITY           SKY/WX    TMP DP  RH WIND       PRES   REMARKS
PARIS          CLEAR     32  19  59 E5        30.59R WCI  27
SULPHUR SPRNGS CLEAR     33  26  76 W6        30.61R WCI  27
MOUNT PLEASANT CLEAR     35  18  49 N5        30.60R WCI  31
GILMER         CLEAR     32  23  69 NW3       30.57R
MINEOLA        CLEAR     32  27  80 CALM      30.59S
TYLER          CLEAR     32  24  72 NW6       30.57R WCI  26
LONGVIEW       CLEAR     32  24  72 E3        30.57R
MARSHALL       CLEAR     33  30  87 CALM      30.60R
ATHENS         CLEAR     32  25  74 CALM      30.58S
PALESTINE      CLEAR     32  26  80 N5        30.59S WCI  27
JACKSONVILLE   CLEAR     34  23  63 CALM      30.57R
HENDERSON      CLEAR     29  26  86 CALM      30.58R
NACOGDOCHES    CLEAR     30  19  64 N3        30.57R
LUFKIN         FAIR      36  21  54 N3        30.56R
$$

SUPPLEMENTAL OBSERVATIONS (CENTRAL)

CITY           SKY/WX    TMP DP  RH WIND       PRES   REMARKS
$$

SUPPLEMENTAL OBSERVATIONS (WEST)

CITY           SKY/WX    TMP DP  RH WIND       PRES   REMARKS
$$

SUPPLEMENTAL OBSERVATIONS (EAST)

CITY           SKY/WX    TMP DP  RH WIND       PRES   REMARKS
$$

SUPPLEMENTAL OBSERVATIONS ARE A COLLECTION OF AUTOMATED INSTRUMENTS
THAT ARE MAINTAINED BY A VARIETY OF FEDERAL AND STATE AGENCIES.
CERTAIN ELEMENTS...SUCH AS HUMIDITY VALUES AND SUSTAINED WIND
SPEEDS...MAY BE APPROXIMATED.



USA.gov is the U.S. government's official web portal to all federal, state and local government web resources and services.